{"data":{"norad_id":62149,"epoch":"2026-05-25T03:31:57.051840Z","epoch_age_seconds":62230,"freshness":"FRESH","line1":"1 62149U 24224L   26145.14718810  .00019431  00000+0  71317-3 0  9993","line2":"2 62149  43.0022  86.2766 0001538 245.6164 114.4528 15.27608123 84018","mean_motion":15.27608123,"eccentricity":0.0001538,"inclination_deg":43.0022,"raan_deg":86.2766,"arg_perigee_deg":245.6164,"mean_anomaly_deg":114.4528,"bstar":0.00071317,"rev_number":8401,"period_min":94.265013279194,"perigee_km":481.90964948216,"apogee_km":484.02012442259,"semimajor_km":6861.1018869524,"source":"CELESTRAK","updated_at":"2026-05-25T13:38:19.571118Z"}}